Showing default

OPS 0856, 2403

Orbit data source: Space-Track

OPS 0856, 2403 is a payload satellite owned by USAF SSD (US) in LEO that was launched on Fri, 19 Aug 1966 UTC via an ATLAS SLV-3 AGENA D launch vehicle from the Air Force Western Test Range (AFWTR). Payload-class satellites include a variety of spacecraft equipped with specific instruments for various scientific and technological missions. These include communications satellites like Starlink; space stations such as the ISS; scientific satellites like the Hubble; Earth observation satellites from companies like Planet Labs, Umbra, and HawkEye 360; GPS; miniature CubeSats for education and research; and military/defense satellites.

Loading next visibility...
Identifier
2403, 1966-077A
Orbit
LEO
Country
Flag of USUS
Related business
Manufacturer
LMSC
Mission
Spacecraft
Bus & Motor
MIDAS, Unknown motor
Mass
~2,000 kg wet, ~1,000 kg dry
Launch date (UTC)
1966-08-19 (60 years ago)
Launch vehicle
ATLAS SLV-3 AGENA D
Launch site
Air Force Western Test Range (AFWTR)
Object type
Payload
Rocket body
Debris
Shape & HBR
Unknown
Radar Cross Section
Large (>1 m²)

Expand to show TLE details & history
Last TLE update: 10 hours ago

TLE from 10 hours ago
0 OPS 0856
1 02403U 66077A   26125.78227767 -.00000004  00000-0 -26827-2 0  9990
2 02403  90.3337 275.9127 0007837 123.9530 236.2068  8.59840938522816
Epoch: 2026-05-05T18:46Z
TLE epoch observation values (Epoch: 2026-05-05T18:46:28.790Z)
Latitude
0.00003°
Longitude
130.64056°
Altitude
3,692.885 km
Speed
6.29 km/s
True Right ascension
18h 23m 39s
True Declination
0° 00' 00"
Sunlit
Object was in daylight at epoch
Visualization orbit readout
Latitude
Unknown
Longitude
Unknown
Altitude
Unknown
Speed
Unknown
Apparent Right ascension
Unknown
Apparent Declination
Unknown
Sunlit
N/A
Visualization observer readout
Local Sidereal Time
12:47:38
Azimuth
Unknown
Elevation
Unknown
Doppler factor
Unknown
Orbital elements
Apogee altitude
3,692.011 km
Perigee altitude
3,676.239 km
Semi-major axis
10,062.262 km
Eccentricity
0.00078
Inclination
90.3337°
RAAN
275.9127°
Arg. of periapsis
123.953°
True anomaly
236.13221°
Mean anomaly
236.2068°
Eccentric anomaly
236.1695°
Mean motion
2.1503 °/min
Orbital period
167.42 mins
BSTAR
-0.0026827
Loading maneuver chart data...
Computing Atmospheric mass density...
Loading historical data...
Loading historical data...
Loading historical data...
Loading historical data...
Loading historical data...
Loading historical data...
Loading historical data...

Documentation

Showing up to 5 results
|